Regional Weather Roundup
Issued by NWS

Home | Current Version | Previous Version | Text Only | Print | Product List | Glossary On
Versions: 1 2 3 4 5 6 7 8 9 10 11 12 13 14 15 16 17 18 19 20 21 22 23 24 25 26 27
000
ASUS42 KFFC 171903
RWRGA
WEATHER ROUNDUP FOR GEORGIA
NATIONAL WEATHER SERVICE PEACHTREE CITY GA
300 PM EDT THU APR 17 2014

NOTE: "FAIR" INDICATES FEW OR NO CLOUDS BELOW 12,000 FEET WITH NO
SIGNIFICANT WEATHER AND/OR OBSTRUCTIONS TO VISIBILITY.

* = USE WITH CAUTION. THE STATIONS MARKED WITH AN ASTERISK MAY NOT
REPORT WEATHER SUCH AS PRECIPITATION, FOG, OR THUNDER AND ARE NOT
QUALITY CONTROLLED BY NWS.

THE REMARK "TC" DENOTES TEMPERATURE READING IN DEGREES CELSIUS.

GAZ001>058-172000-
NORTH GEORGIA

CITY           SKY/WX    TMP DP  RH WIND       PRES   REMARKS
ATLANTA        MOSUNNY   63  38  39 E10       30.35F
ATHENS         SUNNY     63  31  30 E8        30.40F
CHAMBLEE       PTSUNNY   63  35  35 VRB6      30.36F
PEACHTREE CITY PTSUNNY   63  39  41 E14G20    30.35F
ROME           SUNNY     64  39  39 VRB7      30.33F
WEST ATLANTA   CLOUDY    64  36  35 NE13      30.35F
GAINESVILLE    SUNNY     60  31  33 E15G21    30.40F
CARTERSVILLE   SUNNY     62  36  37 SE12G18   30.36F


CITY           SKY/WX    TMP DP  RH WIND       PRES   REMARKS
DALTON*        SUNNY     63  36  36 SE10G20   30.36F
LAWRENCEVILLE* SUNNY     63  34  34 E14       30.38F
MARIETTA       PTSUNNY   63  37  38 E8        30.35F
KENNESAW*      MOSUNNY   61  36  39 SE10G20   30.37F
$$

GAZ059>098-102>109-172000-
CENTRAL GEORGIA

CITY           SKY/WX    TMP DP  RH WIND       PRES   REMARKS
AUGUSTA-BUSH   SUNNY     67  30  25 NE7G18    30.40F
AUGUSTA-DANIEL SUNNY     67  32  27 N10G18    30.41F
COLUMBUS       CLOUDY    62  43  49 E12G20    30.31F
MACON          PTSUNNY   65  43  44 NE10      30.35F
ROBINS AFB     CLOUDY    67  44  43 NE10      30.33F


CITY           SKY/WX    TMP DP  RH WIND       PRES   REMARKS
LAGRANGE*      CLOUDY    65  45  48 E8        30.32F
SYLVANIA*      CLOUDY    69  43  39 E9        30.39F
MILLEDGEVILLE* MOSUNNY   68  28  22 NE7       30.36F
$$

GAZ099>101-110>166-172000-
SOUTH GEORGIA

CITY           SKY/WX    TMP DP  RH WIND       PRES   REMARKS
SAVANNAH       PTSUNNY   69  46  43 NE7       30.37F
VALDOSTA       CLOUDY    71  55  56 E12G22    30.27F
ALMA           CLOUDY    65  49  56 NE9       30.32F
ST SIMONS      CLOUDY    64  57  78 NE16G29   30.33F
FT STEWART     PTSUNNY   68  53  59 E8        30.34F
ALBANY         CLOUDY    67  53  61 E12       30.31F
HUNTER AFB     MOSUNNY   66  47  51 E16G29    30.36F
MOODY AFB      CLOUDY    67  55  64 NE13G21   30.27F
BRUNSWICK      CLOUDY    61  55  82 NE14G21   30.36F


CITY           SKY/WX    TMP DP  RH WIND       PRES   REMARKS
BAINBRIDGE*    PTSUNNY   72  59  64 E18       30.26S
MOULTRIE*      CLOUDY    64  55  72 E9        30.28F
VIDALIA*       CLOUDY    64  43  45 E13G18    30.36F
DOUGLAS*       PTSUNNY   66  50  55 E10G17    30.33F
$$



USA.gov is the U.S. government's official web portal to all federal, state and local government web resources and services.